TimeMDT,TemperatureF,Dew PointF,Humidity,Sea Level PressureIn,VisibilityMPH,Wind Direction,Wind SpeedMPH,Gust SpeedMPH,PrecipitationIn,Events,Conditions,WindDirDegrees,DateUTC
12:15 AM,59.0,57.2,94,30.27,10.0,SW,5.8,-,N/A,,Clear,220,2013-07-28 06:15:00
12:35 AM,59.0,57.2,94,30.27,10.0,WSW,4.6,-,N/A,,Clear,240,2013-07-28 06:35:00
12:55 AM,59.0,55.4,88,30.26,10.0,WSW,5.8,-,N/A,,Clear,240,2013-07-28 06:55:00
1:15 AM,59.0,55.4,88,30.26,10.0,WSW,5.8,-,N/A,,Clear,250,2013-07-28 07:15:00
1:35 AM,59.0,55.4,88,30.25,10.0,WSW,5.8,-,N/A,,Clear,240,2013-07-28 07:35:00
1:55 AM,59.0,55.4,88,30.24,10.0,West,6.9,-,N/A,,Clear,270,2013-07-28 07:55:00
2:15 AM,59.0,55.4,88,30.24,10.0,West,5.8,-,N/A,,Clear,280,2013-07-28 08:15:00
2:35 AM,59.0,55.4,88,30.24,10.0,WSW,6.9,-,N/A,,Clear,250,2013-07-28 08:35:00
2:55 AM,57.2,55.4,94,30.23,10.0,WSW,4.6,-,N/A,,Clear,250,2013-07-28 08:55:00
3:15 AM,57.2,55.4,94,30.22,10.0,West,3.5,-,N/A,,Clear,280,2013-07-28 09:15:00
3:35 AM,57.2,55.4,94,30.21,10.0,West,9.2,-,N/A,,Clear,270,2013-07-28 09:35:00
3:55 AM,59.0,55.4,88,30.21,10.0,WSW,8.1,-,N/A,,Clear,250,2013-07-28 09:55:00
4:15 AM,59.0,55.4,88,30.21,10.0,West,8.1,-,N/A,,Clear,260,2013-07-28 10:15:00
4:35 AM,57.2,55.4,94,30.20,10.0,SW,6.9,-,N/A,,Clear,220,2013-07-28 10:35:00
4:55 AM,57.2,53.6,88,30.20,10.0,Calm,Calm,-,N/A,,Clear,0,2013-07-28 10:55:00
5:15 AM,57.2,55.4,94,30.20,10.0,Calm,Calm,-,N/A,,Clear,0,2013-07-28 11:15:00
5:35 AM,57.2,53.6,88,30.20,10.0,West,4.6,-,N/A,,Clear,280,2013-07-28 11:35:00
5:55 AM,57.2,53.6,88,30.20,10.0,Calm,Calm,-,N/A,,Clear,0,2013-07-28 11:55:00
6:15 AM,57.2,55.4,94,30.20,10.0,WNW,5.8,-,N/A,,Clear,290,2013-07-28 12:15:00
6:35 AM,57.2,55.4,94,30.21,10.0,West,4.6,-,N/A,,Clear,260,2013-07-28 12:35:00
6:55 AM,57.2,55.4,94,30.21,10.0,West,6.9,-,N/A,,Clear,260,2013-07-28 12:55:00
7:15 AM,59.0,57.2,94,30.21,10.0,West,5.8,-,N/A,,Clear,280,2013-07-28 13:15:00
7:35 AM,59.0,57.2,94,30.21,10.0,WSW,5.8,-,N/A,,Clear,250,2013-07-28 13:35:00
7:55 AM,62.6,57.2,82,30.22,10.0,WSW,4.6,-,N/A,,Clear,240,2013-07-28 13:55:00
8:15 AM,64.4,55.4,73,30.22,10.0,WSW,4.6,-,N/A,,Clear,250,2013-07-28 14:15:00
8:35 AM,64.4,55.4,73,30.22,10.0,WSW,4.6,-,N/A,,Clear,250,2013-07-28 14:35:00
8:55 AM,66.2,55.4,68,30.22,10.0,West,3.5,-,N/A,,Clear,280,2013-07-28 14:55:00
9:15 AM,68.0,57.2,68,30.22,10.0,NW,5.8,-,N/A,,Clear,320,2013-07-28 15:15:00
9:35 AM,69.8,55.4,60,30.22,10.0,NW,10.4,-,N/A,,Clear,320,2013-07-28 15:35:00
9:55 AM,69.8,53.6,56,30.22,10.0,NW,8.1,16.1,N/A,,Clear,320,2013-07-28 15:55:00
10:15 AM,71.6,55.4,57,30.22,10.0,North,10.4,18.4,N/A,,Clear,350,2013-07-28 16:15:00
10:35 AM,71.6,55.4,57,30.23,10.0,NW,6.9,16.1,N/A,,Clear,310,2013-07-28 16:35:00
10:55 AM,73.4,55.4,53,30.22,10.0,NW,8.1,17.3,N/A,,Clear,320,2013-07-28 16:55:00
11:15 AM,73.4,57.2,57,30.23,10.0,NW,11.5,-,N/A,,Clear,320,2013-07-28 17:15:00
11:35 AM,75.2,55.4,50,30.22,10.0,NW,12.7,17.3,N/A,,Partly Cloudy,310,2013-07-28 17:35:00
11:55 AM,75.2,55.4,50,30.22,10.0,WNW,8.1,19.6,N/A,,Clear,300,2013-07-28 17:55:00
12:15 PM,75.2,53.6,47,30.22,10.0,NW,13.8,18.4,N/A,Thunderstorm,Clear,310,2013-07-28 18:15:00
12:35 PM,75.2,55.4,50,30.22,10.0,WNW,12.7,19.6,N/A,,Clear,300,2013-07-28 18:35:00
12:55 PM,75.2,55.4,50,30.21,10.0,NW,13.8,18.4,N/A,,Clear,320,2013-07-28 18:55:00
1:15 PM,77.0,53.6,44,30.20,10.0,NNW,10.4,19.6,N/A,,Clear,340,2013-07-28 19:15:00
1:35 PM,77.0,53.6,44,30.19,10.0,North,11.5,19.6,N/A,Thunderstorm,Clear,350,2013-07-28 19:35:00
1:55 PM,77.0,53.6,44,30.18,10.0,West,15.0,20.7,N/A,,Partly Cloudy,280,2013-07-28 19:55:00
2:15 PM,77.0,53.6,44,30.18,10.0,North,10.4,23.0,N/A,,Clear,10,2013-07-28 20:15:00
2:35 PM,78.8,51.8,39,30.18,10.0,NW,8.1,18.4,N/A,,Partly Cloudy,310,2013-07-28 20:35:00
2:55 PM,77.0,51.8,41,30.17,10.0,West,5.8,-,N/A,,Scattered Clouds,280,2013-07-28 20:55:00
3:15 PM,75.2,55.4,50,30.16,10.0,ESE,9.2,-,N/A,,Scattered Clouds,120,2013-07-28 21:15:00
3:35 PM,75.2,55.4,50,30.16,10.0,South,8.1,-,N/A,,Mostly Cloudy,170,2013-07-28 21:35:00
3:55 PM,77.0,57.2,50,30.15,10.0,South,9.2,-,N/A,,Mostly Cloudy,180,2013-07-28 21:55:00
4:15 PM,75.2,55.4,50,30.14,10.0,Calm,Calm,-,N/A,Thunderstorm,Partly Cloudy,0,2013-07-28 22:15:00
4:35 PM,77.0,57.2,50,30.15,10.0,East,16.1,26.5,N/A,,Scattered Clouds,90,2013-07-28 22:35:00
4:55 PM,75.2,57.2,53,30.15,10.0,East,11.5,-,N/A,,Partly Cloudy,80,2013-07-28 22:55:00
5:15 PM,73.4,57.2,57,30.15,10.0,East,11.5,-,N/A,Thunderstorm,Partly Cloudy,100,2013-07-28 23:15:00
5:35 PM,73.4,57.2,57,30.15,10.0,East,12.7,18.4,N/A,Thunderstorm,Scattered Clouds,100,2013-07-28 23:35:00
5:55 PM,71.6,57.2,60,30.15,10.0,ESE,9.2,-,N/A,,Scattered Clouds,110,2013-07-28 23:55:00
6:15 PM,69.8,59.0,68,30.17,10.0,SE,9.2,-,N/A,,Mostly Cloudy,140,2013-07-29 00:15:00
6:35 PM,68.0,57.2,68,30.20,8.0,WNW,9.2,-,0.05,Thunderstorm,Mostly Cloudy,300,2013-07-29 00:35:00
6:55 PM,64.4,57.2,77,30.20,10.0,Calm,Calm,-,0.16,Thunderstorm,Overcast,0,2013-07-29 00:55:00
7:15 PM,62.6,59.0,88,30.20,10.0,South,9.2,-,N/A,Thunderstorm,Thunderstorm,170,2013-07-29 01:15:00
7:35 PM,62.6,59.0,88,30.20,10.0,South,9.2,-,N/A,Thunderstorm,Partly Cloudy,180,2013-07-29 01:35:00
7:55 PM,62.6,59.0,88,30.21,10.0,SW,9.2,-,N/A,,Scattered Clouds,220,2013-07-29 01:55:00
8:15 PM,62.6,59.0,88,30.21,10.0,SSW,8.1,-,N/A,,Partly Cloudy,210,2013-07-29 02:15:00
8:35 PM,62.6,59.0,88,30.21,10.0,SSW,10.4,-,N/A,,Clear,210,2013-07-29 02:35:00
8:55 PM,62.6,59.0,88,30.20,10.0,SW,12.7,-,0.01,Rain,Light Rain,220,2013-07-29 02:55:00
9:15 PM,62.6,57.2,82,30.21,10.0,SSW,8.1,-,N/A,Rain,Light Rain,210,2013-07-29 03:15:00
9:35 PM,60.8,57.2,88,30.23,10.0,North,3.5,-,N/A,Rain,Light Rain,360,2013-07-29 03:35:00
9:55 PM,60.8,59.0,94,30.22,10.0,Calm,Calm,-,N/A,,Clear,0,2013-07-29 03:55:00
10:15 PM,62.6,59.0,88,30.22,10.0,SW,6.9,-,N/A,,Scattered Clouds,230,2013-07-29 04:15:00
10:35 PM,62.6,59.0,88,30.23,10.0,West,10.4,-,N/A,,Mostly Cloudy,270,2013-07-29 04:35:00
10:55 PM,62.6,59.0,88,30.23,10.0,WNW,8.1,-,N/A,,Mostly Cloudy,300,2013-07-29 04:55:00
11:15 PM,62.6,57.2,82,30.23,10.0,WNW,6.9,-,N/A,,Mostly Cloudy,290,2013-07-29 05:15:00
11:35 PM,62.6,59.0,88,30.23,10.0,SSW,5.8,-,N/A,,Overcast,210,2013-07-29 05:35:00
11:55 PM,62.6,57.2,82,30.22,10.0,WSW,6.9,-,N/A,,Overcast,250,2013-07-29 05:55:00